TimeEDT,TemperatureF,Dew PointF,Humidity,Sea Level PressureIn,VisibilityMPH,Wind Direction,Wind SpeedMPH,Gust SpeedMPH,PrecipitationIn,Events,Conditions,WindDirDegrees,DateUTC
12:51 AM,73.9,66.9,79,30.05,10.0,Calm,Calm,-,N/A,,Scattered Clouds,0,2013-07-07 04:51:00
1:51 AM,73.0,66.9,81,30.05,10.0,Calm,Calm,-,N/A,,Mostly Cloudy,0,2013-07-07 05:51:00
2:51 AM,72.0,66.9,84,30.04,10.0,Calm,Calm,-,N/A,,Mostly Cloudy,0,2013-07-07 06:51:00
3:51 AM,71.1,66.0,84,30.03,10.0,SSW,3.5,-,N/A,,Mostly Cloudy,200,2013-07-07 07:51:00
4:51 AM,71.1,66.9,87,30.02,10.0,Calm,Calm,-,N/A,,Scattered Clouds,0,2013-07-07 08:51:00
5:51 AM,71.1,66.9,87,30.02,10.0,Calm,Calm,-,N/A,,Mostly Cloudy,0,2013-07-07 09:51:00
6:51 AM,72.0,68.0,87,30.02,10.0,Calm,Calm,-,N/A,,Mostly Cloudy,0,2013-07-07 10:51:00
7:51 AM,75.9,69.1,79,30.04,10.0,Calm,Calm,-,N/A,,Mostly Cloudy,0,2013-07-07 11:51:00
8:51 AM,73.9,70.0,87,30.04,10.0,Calm,Calm,-,0.01,,Mostly Cloudy,0,2013-07-07 12:51:00
9:51 AM,77.0,71.1,82,30.03,10.0,SSW,4.6,-,N/A,,Mostly Cloudy,200,2013-07-07 13:51:00
10:51 AM,82.0,70.0,67,30.02,10.0,SSW,4.6,-,N/A,,Mostly Cloudy,210,2013-07-07 14:51:00
11:51 AM,84.9,72.0,65,30.00,10.0,Calm,Calm,-,N/A,,Mostly Cloudy,0,2013-07-07 15:51:00
12:51 PM,87.1,72.0,61,29.98,10.0,Calm,Calm,-,N/A,,Mostly Cloudy,0,2013-07-07 16:51:00
1:51 PM,88.0,71.1,57,29.96,10.0,Calm,Calm,-,N/A,,Mostly Cloudy,0,2013-07-07 17:51:00
2:51 PM,86.0,73.0,65,29.93,10.0,SE,8.1,-,N/A,,Mostly Cloudy,140,2013-07-07 18:51:00
3:32 PM,87.8,71.6,58,29.94,3.0,SE,5.8,-,0.00,Rain-Thunderstorm,Light Thunderstorms and Rain,130,2013-07-07 19:32:00
3:42 PM,80.6,73.4,79,29.94,1.0,NE,8.1,-,0.20,Rain-Thunderstorm,Heavy Thunderstorms and Rain,50,2013-07-07 19:42:00
3:51 PM,75.9,71.1,85,29.94,1.5,NE,15.0,-,0.59,Rain-Thunderstorm,Light Thunderstorms and Rain,40,2013-07-07 19:51:00
4:00 PM,80.6,73.4,79,29.92,3.0,ESE,11.5,-,0.05,Rain-Thunderstorm,Light Thunderstorms and Rain,120,2013-07-07 20:00:00
4:17 PM,84.2,73.4,70,29.94,10.0,ESE,4.6,-,0.05,,Mostly Cloudy,110,2013-07-07 20:17:00
4:36 PM,82.4,73.4,74,29.92,10.0,Variable,5.8,-,0.05,Thunderstorm,Thunderstorm,0,2013-07-07 20:36:00
4:46 PM,80.6,73.4,79,29.94,1.8,South,6.9,-,0.09,Rain-Thunderstorm,Light Thunderstorms and Rain,190,2013-07-07 20:46:00
4:51 PM,80.1,73.9,81,29.93,2.0,ESE,5.8,-,0.19,Rain-Thunderstorm,Thunderstorms and Rain,120,2013-07-07 20:51:00
5:06 PM,80.6,73.4,79,29.93,8.0,Calm,Calm,-,0.03,Thunderstorm,Thunderstorm,0,2013-07-07 21:06:00
5:21 PM,80.6,73.4,79,29.92,10.0,NNE,4.6,-,0.03,,Mostly Cloudy,30,2013-07-07 21:21:00
5:35 PM,80.6,75.2,84,29.93,10.0,South,8.1,-,0.03,Thunderstorm,Thunderstorm,180,2013-07-07 21:35:00
5:51 PM,78.1,73.0,84,29.93,10.0,SSE,6.9,-,0.03,Rain-Thunderstorm,Light Thunderstorms and Rain,160,2013-07-07 21:51:00
6:22 PM,80.6,73.4,79,29.91,10.0,Calm,Calm,-,0.04,,Mostly Cloudy,0,2013-07-07 22:22:00
6:51 PM,79.0,75.0,88,29.91,10.0,Calm,Calm,-,0.04,,Mostly Cloudy,0,2013-07-07 22:51:00
7:04 PM,78.8,75.2,89,29.93,9.0,Calm,Calm,-,0.00,Rain-Thunderstorm,Light Thunderstorms and Rain,0,2013-07-07 23:04:00
7:51 PM,77.0,73.9,90,29.94,8.0,WSW,9.2,-,0.07,Rain-Thunderstorm,Light Thunderstorms and Rain,240,2013-07-07 23:51:00
8:38 PM,75.2,66.2,73,29.93,10.0,SSW,3.5,-,0.01,,Overcast,200,2013-07-08 00:38:00
8:51 PM,73.0,69.1,87,29.94,10.0,SSW,3.5,-,0.01,,Overcast,200,2013-07-08 00:51:00
9:51 PM,73.0,70.0,90,29.94,10.0,SSE,3.5,-,N/A,,Mostly Cloudy,150,2013-07-08 01:51:00
10:51 PM,73.0,70.0,90,29.94,10.0,Calm,Calm,-,0.00,Rain,Light Rain,0,2013-07-08 02:51:00
11:51 PM,73.9,69.1,85,29.94,10.0,Calm,Calm,-,0.00,,Overcast,0,2013-07-08 03:51:00